Location: Bacea
(45.9500°N, 22.6667°E)
Time: 11:37:18
(UTC+00:00)

Cosmos 1980 Rocket - Pass Details

Date: 16 October 2021
Orbit: 828 x 851 km, 71.0° (Epoch: 02 December)

Event Time Altitude Azimuth Distance (km) Brightness Sun altitude
Rises 17:15:34 0° 206° (SSW) 3,375 5.6 -17.1°
Reaches altitude 10° 17:17:59 10° 207° (SSW) 2,449 4.9 -17.5°
Maximum altitude 17:23:37 85° 296° (WNW) 853 2.2 -18.5°
Drops below altitude 10° 17:29:20 10° 25° (NNE) 2,480 4.4 -19.5°
Sets 17:31:48 0° 27° (NNE) 3,422 5.2 -19.9°
